Location: Burgerwiesen
(48.6500°N, 15.6167°E)
Time: 11:14:35
(UTC+00:00)

Meteor 2-10 Rocket - Pass Details

Date: 09 April 2020
Orbit: 734 x 884 km, 81.2° (Epoch: 23 May)

Event Time Altitude Azimuth Distance (km) Brightness Sun altitude
Exits shadow 20:33:52 61° 194° (SSW) 894 3.6 -25.0°
Maximum altitude 20:34:50 88° 278° (W) 803 3.5 -25.1°
Drops below altitude 10° 20:40:20 10° 12° (NNE) 2,429 6.6 -25.7°
Sets 20:42:48 0° 12° (NNE) 3,390 7.4 -26.0°
